Вернуться в каталог

ERS 20

OV5-3

LostВоенныеHEO
NORAD 2768·PAYLOAD·🇺🇸 United States

Запущен Apr 28, 1967 с Cape Canaveral Space Force Station

Loading…

Ближайшие Пролёты (ближайшие 24 часа)

TLE

УстаревшееSource: Space-Track

Эпоха: Feb 11, 1975, 13:42 UTC

1 02768U 67040D   75042.57142285 -.00000859  00000-0  10000-3 0  9999
2 02768  35.1200 158.1261 7498300 182.8409 167.1313  0.50865911 13857

Отслеживайте ERS 20 в реальном времени с AllMySat

Download on the App Store